Regional Weather Roundup
Issued by NWS San Angelo, TX

Home | Current Version | Previous Version | Graphics & Text | Print | Product List | Glossary Off
Versions: 1 2 3 4 5 6 7 8 9 10 11 12 13 14 15 16 17 18 19 20 21 22 23 24 25 26 27 28 29 30 31 32 33 34 35 36 37 38 39 40 41 42 43 44 45 46 47 48 49 50

000
ASUS44 KSJT 281410
RWRSJT
WEST CENTRAL TEXAS REGIONAL WEATHER ROUNDUP
NATIONAL WEATHER SERVICE SAN ANGELO TX
800 AM CST FRI NOV 28 2014

NOTE: "FAIR" INDICATES FEW OR NO CLOUDS BELOW 12,000 FEET WITH NO
SIGNIFICANT WEATHER AND/OR OBSTRUCTIONS TO VISIBILITY.

TXZ049-054-064>066-071>073-076>078-098-099-113-114-127-128-139-140-
154-155-168>170-281500
...LOCATIONS ACROSS WEST CENTRAL TEXAS...

CITY           SKY/WX    TMP DP  RH WIND       PRES   REMARKS
SAN ANGELO     CLEAR     49  45  86 S10       30.22S
ABILENE        CLEAR     49  41  74 S17G31    30.18F
DYESS AFB      CLEAR     47  38  70 SW18      30.16S
JUNCTION       CLOUDY    54  49  83 SW9       30.27F
SWEETWATER     CLEAR     46  38  75 SW12      30.20S WCI  40
BROWNWOOD      CLEAR     39  36  87 S7        30.25F WCI  34
COLEMAN        SUNNY     42  38  85 S8        30.23F WCI  37
SONORA         CLOUDY    52  50  93 S15G21    30.30F
OZONA          CLOUDY    46  45  93 S13G18    30.28S FOG
BRADY          CLOUDY    50  48  93 S12       30.24R
$$

TEXAS PANHANDLE/OKLAHOMA PANHANDLE

CITY           SKY/WX    TMP DP  RH WIND       PRES   REMARKS
AMARILLO       PTCLDY    39  27  62 SW9       30.06S WCI  33
BORGER         CLEAR     45  27  49 SW13      30.02S WCI  39
CANADIAN       PTCLDY    33  29  85 CALM      30.00S
DALHART        MOCLDY    35  25  66 S8        30.05F WCI  29
DUMAS            N/A     41  26  56 SW15      30.03F WCI  33
GUYMON         NOT AVBL
HEREFORD       MOSUNNY   36  29  75 MISG      30.09S
PAMPA          SUNNY     40  28  60 W12       30.02S WCI  33
PERRYTON       PTCLDY    35  27  73 W6        29.98S WCI  30
$$

SOUTHERN PANHANDLE/SOUTH PLAINS/ROLLING PLAINS

CITY           SKY/WX    TMP DP  RH WIND       PRES   REMARKS
LUBBOCK        PTCLDY    39  29  67 W13       30.14R WCI  31
SNYDER         CLEAR     36  32  87 SW7       30.19S WCI  30
CHILDRESS      CLEAR     41  32  70 SW8       30.08S WCI  36
SEMINOLE       SUNNY     35  32  89 CALM      30.18R
$$

PERMIAN BASIN

CITY           SKY/WX    TMP DP  RH WIND       PRES   REMARKS
MIDLAND        CLEAR     42  34  73 S8        30.19S WCI  37
ODESSA         PTCLDY    41  33  73 S6        30.20R WCI  37
WINK           CLEAR     31  24  75 CALM      30.18S
$$

FAR WEST/SOUTHWEST MOUNTAINS/TRANS PECOS

CITY           SKY/WX    TMP DP  RH WIND       PRES   REMARKS
ALPINE         MOSUNNY   47  24  39 W17       30.31R
DRYDEN           N/A     40  36  86 N5        30.25S WCI  37
EL PASO        MOCLDY    33  20  58 N5        30.25S WCI  29
FORT STOCKTON  CLEAR     48  26  42 SW14      30.19S
GUADALUPE PASS NOT AVBL
MARFA          PTCLDY    23  19  86 N5        30.31R WCI  17
PECOS          MOSUNNY   28  24  83 SW3       30.21R
$$

DALLAS/FORT WORTH METROPLEX

CITY           SKY/WX    TMP DP  RH WIND       PRES   REMARKS
DFW AIRPORT    PTCLDY    45  32  60 S13       30.23F WCI  39
FTW MEACHAM    CLEAR     48  35  60 S13       30.22F
DAL-EXECUTIVE  CLEAR     46  29  51 VRB5      30.24F
GRAND PRAIRIE  CLEAR     45  34  65 S8        30.26
ADDISON        CLEAR     46  28  49 SE10      30.24F
MESQUITE       SUNNY     39  34  81 SE6       30.27F WCI  35
LANCASTER      SUNNY     37  30  76 CALM      30.27F
$$

NORTH CENTRAL TEXAS

CITY           SKY/WX    TMP DP  RH WIND       PRES   REMARKS
SHRMAN/DENISON SUNNY     44  35  68 S12       30.24S WCI  39
GAINESVILLE    NOT AVBL
BRIDGEPORT     SUNNY     35  33  94 CALM      30.22S
DENTON         CLEAR     43  32  65 SE7       30.23S WCI  39
WAXAHACHIE     SUNNY     41  33  72 SE6       30.27F WCI  37
GRANBURY       SUNNY     41  35  78 SE6       30.25F WCI  37
$$

WESTERN NORTH TEXAS

CITY           SKY/WX    TMP DP  RH WIND       PRES   REMARKS
WICHITA FALLS  CLEAR     43  33  68 S15       30.13F WCI  36
VERNON         MOSUNNY   43  34  70 S12       30.11F WCI  37
BRECKENRIDGE   SUNNY     48  36  63 S9        30.18F
COMANCHE       CLEAR     46  37  73 S13       30.24S WCI  40
$$

CENTRAL AND SOUTH CENTRAL TEXAS

CITY           SKY/WX    TMP DP  RH WIND       PRES   REMARKS
AUSTIN/BERGSTM PTCLDY    42  40  92 N6        30.32R WCI  38
WACO           PTCLDY    46  41  82 S12       30.29F
HILLSBORO      MOSUNNY   46  34  63 S10       30.28S
TEMPLE         PTCLDY    43  34  70 S8        30.29S WCI  38
KILLEEN-GRAY   CLOUDY    46  36  68 S9        30.28F
FORT HOOD      CLOUDY    48  34  58 SE5       30.29S
GEORGETOWN     CLOUDY    46  43  87 S3        30.30S
LAGO VISTA     CLOUDY    52  46  81 S6        30.30S
SAN MARCOS     PTCLDY   N/A N/A N/A CALM      30.33S
NEW BRAUNFELS  PTCLDY    47  43  86 CALM      30.31S
RANDOLPH AFB   PTCLDY    45  40  83 N3        30.32S
SAN ANTONIO    CLOUDY    48  43  82 CALM      30.33R
STINSON        CLOUDY    45  42  89 CALM      30.31R
PLEASANTON     NOT AVBL
LA GRANGE      CLEAR     50  45  83 S6        30.30F HAZE
GIDDINGS       SUNNY     43  41  91 CALM      30.36R
$$

EAST TEXAS

CITY           SKY/WX    TMP DP  RH WIND       PRES   REMARKS
PARIS          CLEAR     36  30  80 SE7       30.29F WCI  30
CLARKSVILLE    NOT AVBL
TYLER          CLEAR     42  34  73 S8        30.31S WCI  37
LONGVIEW       SUNNY     41  35  79 SE9       30.33S WCI  35
PALESTINE      SUNNY     44  38  80 SE6       30.33S
NACOGDOCHES    SUNNY     39  34  81 SE5       30.35F WCI  36
$$

TEXAS HILL COUNTRY AND EDWARDS PLATEAU

CITY           SKY/WX    TMP DP  RH WIND       PRES   REMARKS
LLANO          CLOUDY    41  39  93 CALM      30.31F
HORSESHOE BAY  CLOUDY    50  42  74 CALM      30.29S
KERRVILLE      CLOUDY    51  49  93 S8        30.31S
FREDERICKSBRG  CLOUDY    51  50  96 SW9       30.29S FOG
ROCKSPRINGS    CLOUDY    52  48  87 MISG      30.31S
HONDO          CLOUDY    50  49  96 CALM      30.34R FOG
UVALDE         MOSUNNY   44  44  99 CALM      30.32S FOG
DEL RIO        FOG       50  50 100 SE12      30.28S VSB 1/2
$$

SOUTHEAST TEXAS

CITY           SKY/WX    TMP DP  RH WIND       PRES   REMARKS
COLLEGE STN    SUNNY     45  40  82 SE6       30.33S
CALDWELL       SUNNY     39  39 100 CALM      30.36S
CROCKETT       SUNNY     45  37  76 SE6       30.37S
BRENHAM        SUNNY     44  40  86 CALM      30.35R
HUNTSVILLE     SUNNY     48  40  73 SE8       30.33F
CONROE         SUNNY     45  39  79 SE6       30.36S
HOUSTON BUSH   SUNNY     46  43  89 SE6       30.35F
HOUSTON HOBBY  SUNNY     51  48  89 E3        30.35S
PERLAND        SUNNY     51  49  92 E7        30.37S
WHARTON        PTSUNNY   49  47  90 E6        30.34F
$$

THE UPPER TEXAS COAST

CITY           SKY/WX    TMP DP  RH WIND       PRES   REMARKS
ORANGE         SUNNY     43  41  92 E5        30.41S
PORT ARTHUR    SUNNY     48  43  82 E7        30.38F
GALVESTON      SUNNY     60  53  77 E8        30.36S
ANGLETON       SUNNY     51  49  92 E3        30.34F
BAY CITY         N/A     50  50  98 CALM      30.34S
$$

TEXAS COASTAL BEND, RIO GRANDE PLAINS DEEP SOUTH TEXAS

CITY           SKY/WX    TMP DP  RH WIND       PRES   REMARKS
VICTORIA       SUNNY     51  48  89 E5        30.32S
BEEVILLE       FAIR      52  52 100 CALM      30.32S
ROCKPORT       SUNNY     60  58  92 CALM      30.32R
PORT ARANSAS   SUNNY     61  58  91 CALM      30.32R
PORT LAVACA    PTSUNNY   55  55  97 E3        30.32S
CORPUS CHRISTI FOG       52  52 100 CALM      30.32R VSB 1/2
KINGSVILLE NAS FOG       49  49 100 CALM      30.32S VSB 3/4
COTULLA        FOG       48  47  96 CALM      30.32R VSB<1/4
LAREDO         FOG       54  54 100 S5        30.34R VSB 1/2
BROWNSVILLE    MOSUNNY   55  54  96 CALM      30.32S FOG
PORT ISABEL    SUNNY     58  57  97 CALM      30.31S
HEBBRONVILLE   FOG       49  48  99 CALM      30.32S VSB 1
MCALLEN        FOG       52  52 100 CALM      30.32S VSB 1/2
WESLACO        SUNNY     54  53  94 CALM      30.32R
FALFURRIAS     PTSUNNY   47  46  95 CALM      30.31F VSB 1/2
EDINBURG       SUNNY     49  47  93 CALM      30.32S
$$


USA.gov is the U.S. government's official web portal to all federal, state and local government web resources and services.